{"data":{"norad_id":68338,"intl_designator":"2026-059T","name":"STARLINK-36254","alt_names":[],"object_type":"PAYLOAD","status":"ACTIVE","operator":null,"country":"US","launch_date":"2026-03-22","launch_site_code":"AFETR","launch_vehicle":null,"mission":null,"orbit_class":"UNKNOWN","rcs_meters":null,"size_class":null,"mass_kg":null,"dimensions":null,"purposes":["comms"],"wikipedia_slug":null,"has_3d_model":false,"image_url":null,"decayed_at":null,"tle_current":{"epoch":"2026-09-19T23:23:26.339424Z","epoch_age_seconds":93065,"freshness":"FRESH","line1":"1 68338U 26059T   26262.97461041  .00021014  00000+0  63116-3 0  9997","line2":"2 68338  53.1582 157.8494 0003518  98.0304 262.1098 15.34406117 28036","mean_motion":15.34406117,"eccentricity":0.0003518,"inclination_deg":53.1582,"raan_deg":157.8494,"arg_perigee_deg":98.0304,"mean_anomaly_deg":262.1098,"bstar":0.00063116,"rev_number":2803,"period_min":93.847383951742,"perigee_km":460.27845805396,"apogee_km":465.09166045485,"semimajor_km":6840.8220592544,"source":"CELESTRAK","updated_at":"2026-09-20T09:00:43.887968Z"}}}